Location: Dreilärchen
(47.9312°N, 8.6113°E)
Time: 02:32:24
(UTC+00:00)

Meteor 2-1 Rocket - Pass Details

Date: 26 May 2022
Orbit: 827 x 909 km, 81.3° (Epoch: 26 June)

Event Time Altitude Azimuth Distance (km) Brightness Sun altitude
Rises 02:42:45 0° 345° (NNW) 3,503 7.8 -7.7°
Reaches altitude 10° 02:45:16 10° 341° (NNW) 2,547 7.0 -7.4°
Maximum altitude 02:50:54 57° 265° (W) 1,014 4.4 -6.7°
Drops below altitude 10° 02:56:24 10° 188° (S) 2,474 6.2 -6.0°
Sets 02:58:48 0° 184° (S) 3,394 6.9 -5.7°
